1547784001.09,16536,0.0,0.0,-11.47,-13.33,-13.23,0,*65
1547784002.36,16537,0.0,0.0,-11.45,-13.33,-13.33,0,*67
1547784003.65,16538,0.0,0.0,-11.47,-13.37,-13.29,0,*65
1547784004.91,16539,0.0,0.0,-11.47,-13.33,-13.19,0,*63
1547784006.2,16540,0.0,0.0,-11.47,-13.29,-13.29,0,*65
1547784007.47,16541,0.0,0.0,-11.47,-13.19,-13.29,0,*67
1547784008.68,16542,0.0,0.0,-11.45,-13.23,-13.15,0,*60
1547784009.97,16543,0.0,0.0,-11.47,-13.29,-13.29,0,*66
1547784011.19,16544,0.0,0.0,-11.45,-13.23,-13.23,0,*63
1547784012.48,16545,0.0,0.0,-11.47,-13.37,-13.37,0,*60
1547784013.75,16546,0.0,0.0,-11.47,-13.33,-13.19,0,*6B
1547784014.99,16547,0.0,0.0,-11.47,-13.19,-13.19,0,*62
1547784016.24,16548,0.0,0.0,-11.49,-13.19,-13.29,0,*60
1547784017.48,16549,0.0,0.0,-11.49,-13.29,-13.19,0,*61
1547784018.75,16550,0.0,0.0,-11.47,-13.19,-13.29,0,*67
1547784020.0,16551,0.0,0.0,-11.47,-13.19,-13.19,0,*65
1547784021.28,16552,0.0,0.0,-11.47,-13.29,-13.29,0,*66
1547784022.56,16553,0.0,0.0,-11.47,-13.37,-13.19,0,*6B
1547784023.85,16554,0.0,0.0,-11.47,-13.29,-13.29,0,*60
1547784025.09,16555,0.0,0.0,-11.45,-13.29,-13.23,0,*69
1547784026.35,16556,0.0,0.0,-11.45,-13.37,-13.29,0,*6F
1547784027.61,16557,0.0,0.0,-11.45,-13.33,-13.33,0,*61
1547784028.85,16558,0.0,0.0,-11.47,-13.51,-13.47,0,*6B
1547784030.08,16559,0.0,0.0,-11.47,-13.47,-13.47,0,*6D
1547784031.28,16560,0.0,0.0,-11.45,-13.47,-13.43,0,*61
1547784032.52,16561,0.0,0.0,-11.47,-13.47,-13.51,0,*61
1547784033.75,16562,0.0,0.0,-11.47,-13.43,-13.43,0,*65
1547784034.99,16563,0.0,0.0,-11.45,-13.47,-13.33,0,*65
1547784036.23,16564,0.0,0.0,-11.45,-13.33,-13.23,0,*60
1547784037.52,16565,0.0,0.0,-11.47,-13.37,-13.33,0,*66
1547784038.81,16566,0.0,0.0,-11.47,-13.37,-13.33,0,*65
1547784040.1,16567,0.0,0.0,-11.47,-13.37,-13.33,0,*64
1547784041.34,16568,0.0,0.0,-11.45,-13.33,-13.23,0,*6C
1547784042.6,16569,0.0,0.0,-11.45,-13.33,-13.29,0,*67
1547784043.84,16570,0.0,0.0,-11.45,-13.33,-13.23,0,*65
1547784045.07,16571,0.0,0.0,-11.45,-13.47,-13.33,0,*66
1547784046.31,16572,0.0,0.0,-11.45,-13.43,-13.33,0,*61
1547784047.58,16573,0.0,0.0,-11.47,-13.61,-13.51,0,*66
1547784048.84,16574,0.0,0.0,-11.47,-13.61,-13.51,0,*61
1547784050.06,16575,0.0,0.0,-11.45,-13.69,-13.55,0,*6E
1547784051.32,16576,0.0,0.0,-11.47,-13.79,-13.65,0,*6D
1547784052.52,16577,0.0,0.0,-11.45,-13.73,-13.69,0,*68
1547784053.76,16578,0.0,0.0,-11.43,-13.73,-13.73,0,*6A
1547784054.97,16579,0.0,0.0,-11.45,-13.73,-13.69,0,*66
1547784056.2,16580,0.0,0.0,-11.47,-13.65,-13.65,0,*69
1547784057.44,16581,0.0,0.0,-11.47,-13.65,-13.65,0,*68
1547784058.67,16582,0.0,0.0,-11.45,-13.61,-13.69,0,*61
1547784059.91,16583,0.0,0.0,-11.47,-13.73,-13.73,0,*6A
1547784061.14,16584,0.0,0.0,-11.47,-13.73,-13.73,0,*6D
1547784062.4,16585,0.0,0.0,-11.47,-13.79,-13.73,0,*66
1547784063.66,16586,0.0,0.0,-11.47,-13.73,-13.79,0,*65
1547784064.94,16587,0.0,0.0,-11.47,-13.79,-13.79,0,*6E
1547784066.2,16588,0.0,0.0,-11.47,-13.73,-13.79,0,*6B
1547784067.44,16589,0.0,0.0,-11.45,-13.83,-13.73,0,*6D
1547784068.68,16590,0.0,0.0,-11.45,-13.83,-13.69,0,*6E
1547784069.97,16591,0.0,0.0,-11.47,-13.87,-13.87,0,*69
1547784071.2,16592,0.0,0.0,-11.47,-13.65,-13.65,0,*6A
1547784072.49,16593,0.0,0.0,-11.47,-13.61,-13.61,0,*6B
1547784073.76,16594,0.0,0.0,-11.47,-13.61,-13.51,0,*6F
1547784074.99,16595,0.0,0.0,-11.47,-13.65,-13.65,0,*6D
1547784076.27,16596,0.0,0.0,-11.47,-13.79,-13.79,0,*6E
1547784077.54,16597,0.0,0.0,-11.45,-13.83,-13.83,0,*6D
1547784078.82,16598,0.0,0.0,-11.47,-13.87,-13.79,0,*61
1547784080.08,16599,0.0,0.0,-11.45,-13.87,-13.83,0,*67
1547784081.37,16600,0.0,0.0,-11.47,-13.87,-13.87,0,*62
1547784082.6,16601,0.0,0.0,-11.49,-13.87,-13.73,0,*66
1547784083.86,16602,0.0,0.0,-11.49,-13.87,-13.79,0,*6F
1547784085.11,16603,0.0,0.0,-11.49,-13.79,-13.79,0,*6F
1547784086.37,16604,0.0,0.0,-11.47,-13.79,-13.73,0,*6C
1547784087.61,16605,0.0,0.0,-11.47,-13.73,-13.73,0,*67
1547784088.82,16606,0.0,0.0,-11.49,-13.73,-13.73,0,*6A
1547784090.03,16607,0.0,0.0,-11.49,-13.73,-13.73,0,*6B
1547784091.27,16608,0.0,0.0,-11.47,-13.73,-13.73,0,*6A
1547784092.5,16609,0.0,0.0,-11.47,-13.65,-13.65,0,*6B
1547784093.71,16610,0.0,0.0,-11.49,-13.73,-13.73,0,*6D
1547784094.95,16611,0.0,0.0,-11.47,-13.73,-13.73,0,*62
1547784096.19,16612,0.0,0.0,-11.47,-13.65,-13.65,0,*61
1547784097.42,16613,0.0,0.0,-11.51,-13.69,-13.65,0,*6B
1547784098.66,16614,0.0,0.0,-11.49,-13.61,-13.51,0,*6A
1547784099.9,16615,0.0,0.0,-11.49,-13.61,-13.65,0,*6C
1547784101.11,16616,0.0,0.0,-11.49,-13.47,-13.51,0,*6C
1547784102.31,16617,0.0,0.0,-11.49,-13.47,-13.47,0,*6A
1547784103.57,16618,0.0,0.0,-11.47,-13.37,-13.47,0,*6C
1547784104.81,16619,0.0,0.0,-11.49,-13.37,-13.51,0,*64
1547784106.04,16620,0.0,0.0,-11.51,-13.55,-13.55,0,*67
1547784107.28,16621,0.0,0.0,-11.51,-13.55,-13.55,0,*66
1547784108.54,16622,0.0,0.0,-11.49,-13.61,-13.61,0,*6C
1547784109.79,16623,0.0,0.0,-11.51,-13.51,-13.55,0,*60
1547784111.01,16624,0.0,0.0,-11.49,-13.51,-13.51,0,*6A
1547784112.23,16625,0.0,0.0,-11.49,-13.51,-13.51,0,*6B
1547784113.46,16626,0.0,0.0,-11.49,-13.47,-13.33,0,*6B
1547784114.72,16627,0.0,0.0,-11.51,-13.43,-13.37,0,*63
1547784115.95,16628,0.0,0.0,-11.49,-13.37,-13.47,0,*61
1547784117.16,16629,0.0,0.0,-11.49,-13.51,-13.47,0,*60
1547784118.36,16630,0.0,0.0,-11.49,-13.47,-13.47,0,*6F
1547784119.57,16631,0.0,0.0,-11.49,-13.47,-13.47,0,*6E
1547784120.8,16632,0.0,0.0,-11.49,-13.47,-13.37,0,*6A
1547784122.03,16633,0.0,0.0,-11.47,-13.47,-13.47,0,*62
1547784123.26,16634,0.0,0.0,-11.47,-13.47,-13.51,0,*62
1547784124.5,16635,0.0,0.0,-11.47,-13.51,-13.47,0,*63
1547784125.71,16636,0.0,0.0,-11.49,-13.47,-13.51,0,*6E
1547784126.95,16637,0.0,0.0,-11.47,-13.51,-13.47,0,*61
1547784128.19,16638,0.0,0.0,-11.47,-13.51,-13.47,0,*6E
1547784129.39,16639,0.0,0.0,-11.45,-13.65,-13.47,0,*6A
1547784130.66,16640,0.0,0.0,-11.47,-13.61,-13.51,0,*65
1547784131.91,16641,0.0,0.0,-11.47,-13.51,-13.51,0,*67
1547784133.15,16642,0.0,0.0,-11.47,-13.51,-13.51,0,*64
1547784134.35,16643,0.0,0.0,-11.45,-13.47,-13.47,0,*67
1547784135.56,16644,0.0,0.0,-11.45,-13.47,-13.55,0,*63
1547784136.81,16645,0.0,0.0,-11.47,-13.51,-13.51,0,*63
1547784138.01,16646,0.0,0.0,-11.45,-13.47,-13.43,0,*66
1547784139.22,16647,0.0,0.0,-11.45,-13.43,-13.43,0,*63
1547784140.47,16648,0.0,0.0,-11.47,-13.51,-13.51,0,*6E
1547784141.71,16649,0.0,0.0,-11.47,-13.51,-13.51,0,*6F
1547784142.95,16650,0.0,0.0,-11.47,-13.65,-13.47,0,*67
1547784144.15,16651,0.0,0.0,-11.45,-13.55,-13.43,0,*63
1547784145.42,16652,0.0,0.0,-11.47,-13.61,-13.51,0,*66
1547784146.62,16653,0.0,0.0,-11.45,-13.47,-13.47,0,*66
1547784147.83,16654,0.0,0.0,-11.45,-13.47,-13.43,0,*65
1547784149.07,16655,0.0,0.0,-11.47,-13.73,-13.65,0,*65
1547784150.35,16656,0.0,0.0,-11.47,-13.79,-13.79,0,*61
1547784151.61,16657,0.0,0.0,-11.45,-13.83,-13.83,0,*62
1547784152.88,16658,0.0,0.0,-11.47,-14.01,-13.93,0,*63
1547784154.17,16659,0.0,0.0,-11.47,-14.01,-13.87,0,*67
1547784155.43,16660,0.0,0.0,-11.47,-14.05,-13.93,0,*6C
1547784156.7,16661,0.0,0.0,-11.47,-14.05,-13.93,0,*6D
1547784157.98,16662,0.0,0.0,-11.47,-13.87,-13.79,0,*67
1547784159.27,16663,0.0,0.0,-11.47,-13.87,-13.61,0,*6F
1547784160.48,16664,0.0,0.0,-11.45,-13.69,-13.69,0,*62
1547784161.72,16665,0.0,0.0,-11.47,-13.73,-13.65,0,*66
1547784162.98,16666,0.0,0.0,-11.47,-13.65,-13.61,0,*66
1547784164.22,16667,0.0,0.0,-11.47,-13.65,-13.51,0,*64
1547784165.48,16668,0.0,0.0,-11.47,-13.65,-13.61,0,*68
1547784166.7,16669,0.0,0.0,-11.45,-13.55,-13.55,0,*6F
1547784167.93,16670,0.0,0.0,-11.45,-13.61,-13.43,0,*67
1547784169.17,16671,0.0,0.0,-11.47,-13.51,-13.47,0,*63
1547784170.41,16672,0.0,0.0,-11.45,-13.43,-13.29,0,*69
1547784171.64,16673,0.0,0.0,-11.47,-13.47,-13.47,0,*66
1547784172.84,16674,0.0,0.0,-11.45,-13.47,-13.43,0,*67
1547784174.09,16675,0.0,0.0,-11.47,-13.93,-13.79,0,*64
1547784175.35,16676,0.0,0.0,-11.47,-13.93,-13.79,0,*67
1547784176.61,16677,0.0,0.0,-11.45,-13.87,-13.83,0,*64
1547784177.84,16678,0.0,0.0,-11.45,-13.87,-13.73,0,*64
1547784179.11,16679,0.0,0.0,-11.45,-14.01,-13.87,0,*67
1547784180.4,16680,0.0,0.0,-11.47,-14.05,-13.83,0,*63
1547784181.67,16681,0.0,0.0,-11.47,-14.01,-13.93,0,*67
1547784182.93,16682,0.0,0.0,-11.45,-13.97,-13.87,0,*6B
1547784184.17,16683,0.0,0.0,-11.45,-13.97,-13.73,0,*61
1547784185.41,16684,0.0,0.0,-11.45,-13.79,-13.55,0,*62
1547784186.65,16685,0.0,0.0,-11.47,-13.65,-13.65,0,*6F
1547784187.91,16686,0.0,0.0,-11.47,-13.61,-13.51,0,*6F
1547784189.15,16687,0.0,0.0,-11.47,-13.65,-13.73,0,*6A
1547784190.38,16688,0.0,0.0,-11.47,-13.65,-13.73,0,*65
1547784191.61,16689,0.0,0.0,-11.45,-13.93,-13.87,0,*64
1547784192.88,16690,0.0,0.0,-11.47,-14.05,-13.93,0,*63
1547784194.14,16691,0.0,0.0,-11.45,-14.01,-13.87,0,*61
1547784195.42,16692,0.0,0.0,-11.47,-14.15,-14.01,0,*6C
1547784196.67,16693,0.0,0.0,-11.45,-14.15,-14.01,0,*6F
1547784197.92,16694,0.0,0.0,-11.49,-14.15,-14.05,0,*60
1547784199.16,16695,0.0,0.0,-11.47,-14.15,-13.93,0,*67
1547784200.41,16696,0.0,0.0,-11.45,-14.19,-13.97,0,*6E
1547784201.69,16697,0.0,0.0,-11.47,-14.15,-14.01,0,*69
1547784202.9,16698,0.0,0.0,-11.49,-14.19,-13.93,0,*68
1547784204.11,16699,0.0,0.0,-11.49,-14.19,-13.93,0,*69
1547784205.33,16700,0.0,0.0,-11.49,-14.15,-13.93,0,*64
1547784206.59,16701,0.0,0.0,-11.49,-14.05,-13.87,0,*61
1547784207.85,16702,0.0,0.0,-11.49,-14.05,-13.79,0,*63
1547784209.12,16703,0.0,0.0,-11.47,-14.01,-13.65,0,*65
1547784210.33,16704,0.0,0.0,-11.49,-13.93,-13.65,0,*60
1547784211.59,16705,0.0,0.0,-11.49,-13.87,-13.61,0,*60
1547784212.83,16706,0.0,0.0,-11.49,-13.65,-13.61,0,*6F
1547784214.12,16707,0.0,0.0,-11.51,-13.83,-13.79,0,*66
1547784215.35,16708,0.0,0.0,-11.49,-13.79,-13.73,0,*6F
1547784216.64,16709,0.0,0.0,-11.51,-13.83,-13.83,0,*6D
1547784217.94,16710,0.0,0.0,-11.51,-14.05,-13.97,0,*69
1547784219.2,16711,0.0,0.0,-11.51,-14.05,-13.93,0,*6C
1547784220.43,16712,0.0,0.0,-11.49,-13.87,-13.73,0,*65
1547784221.69,16713,0.0,0.0,-11.51,-13.93,-13.83,0,*67
1547784222.94,16714,0.0,0.0,-11.51,-13.93,-13.79,0,*65
1547784224.2,16715,0.0,0.0,-11.51,-13.93,-13.83,0,*61
1547784225.46,16716,0.0,0.0,-11.51,-13.83,-13.69,0,*67
1547784226.69,16717,0.0,0.0,-11.49,-13.79,-13.65,0,*66
1547784227.98,16718,0.0,0.0,-11.51,-13.83,-13.79,0,*68
1547784229.21,16719,0.0,0.0,-11.49,-13.87,-13.65,0,*69
1547784230.47,16720,0.0,0.0,-11.51,-13.79,-13.55,0,*68
1547784231.71,16721,0.0,0.0,-11.49,-13.61,-13.51,0,*6D
1547784232.93,16722,0.0,0.0,-11.49,-13.65,-13.51,0,*6A
1547784234.16,16723,0.0,0.0,-11.49,-13.79,-13.65,0,*61
1547784235.37,16724,0.0,0.0,-11.49,-13.73,-13.51,0,*6B
1547784236.63,16725,0.0,0.0,-11.51,-13.79,-13.51,0,*69
1547784237.85,16726,0.0,0.0,-11.49,-13.65,-13.51,0,*6E
1547784239.08,16727,0.0,0.0,-11.49,-13.79,-13.55,0,*66
1547784240.35,16728,0.0,0.0,-11.51,-13.83,-13.65,0,*66
1547784241.61,16729,0.0,0.0,-11.49,-13.79,-13.61,0,*6F
1547784242.85,16730,0.0,0.0,-11.49,-13.79,-13.51,0,*64
1547784244.14,16731,0.0,0.0,-11.51,-13.83,-13.61,0,*6A
1547784245.35,16732,0.0,0.0,-11.49,-13.73,-13.65,0,*6B
1547784246.58,16733,0.0,0.0,-11.51,-13.93,-13.69,0,*61
1547784247.84,16734,0.0,0.0,-11.49,-13.87,-13.79,0,*6B
1547784249.04,16735,0.0,0.0,-11.49,-13.93,-13.73,0,*65
1547784250.25,16736,0.0,0.0,-11.49,-13.93,-13.73,0,*66
1547784251.51,16737,0.0,0.0,-11.49,-14.05,-13.79,0,*65
1547784252.78,16738,0.0,0.0,-11.49,-14.01,-13.87,0,*6F
1547784254.04,16739,0.0,0.0,-11.49,-14.01,-13.87,0,*6E
1547784255.3,16740,0.0,0.0,-11.49,-13.87,-13.79,0,*68
1547784256.56,16741,0.0,0.0,-11.51,-13.97,-13.69,0,*60
1547784257.77,16742,0.0,0.0,-11.49,-13.93,-13.69,0,*6E
1547784259.03,16743,0.0,0.0,-11.51,-13.83,-13.69,0,*67
1547784260.29,16744,0.0,0.0,-11.51,-13.83,-13.65,0,*6C
1547784261.56,16745,0.0,0.0,-11.49,-13.79,-13.61,0,*65
1547784262.79,16746,0.0,0.0,-11.49,-13.79,-13.65,0,*62
1547784264.06,16747,0.0,0.0,-11.49,-13.83,-13.61,0,*62
1547784265.3,16748,0.0,0.0,-11.49,-13.87,-13.65,0,*6D
1547784266.53,16749,0.0,0.0,-11.49,-13.73,-13.61,0,*63
1547784267.8,16750,0.0,0.0,-11.51,-13.83,-13.65,0,*69
1547784269.06,16751,0.0,0.0,-11.51,-13.83,-13.69,0,*64
1547784270.33,16752,0.0,0.0,-11.49,-13.79,-13.61,0,*63
1547784271.58,16753,0.0,0.0,-11.51,-13.79,-13.69,0,*63
1547784272.84,16754,0.0,0.0,-11.51,-13.93,-13.83,0,*64
1547784274.13,16755,0.0,0.0,-11.51,-13.97,-13.83,0,*61
1547784275.39,16756,0.0,0.0,-11.51,-13.93,-13.97,0,*63
1547784276.68,16757,0.0,0.0,-11.51,-13.97,-13.79,0,*66
1547784277.91,16758,0.0,0.0,-11.51,-13.69,-13.69,0,*69
1547784279.16,16759,0.0,0.0,-11.51,-13.93,-13.83,0,*69
1547784280.42,16760,0.0,0.0,-11.49,-13.87,-13.79,0,*6A
1547784281.7,16761,0.0,0.0,-11.51,-13.97,-13.79,0,*63
1547784282.99,16762,0.0,0.0,-11.51,-13.97,-13.79,0,*60
1547784284.23,16763,0.0,0.0,-11.51,-13.69,-13.51,0,*6A
1547784285.44,16764,0.0,0.0,-11.49,-13.55,-13.23,0,*6E
1547784286.66,16765,0.0,0.0,-11.49,-13.51,-13.43,0,*6D
1547784287.91,16766,0.0,0.0,-11.51,-13.47,-13.29,0,*6C
1547784289.18,16767,0.0,0.0,-11.51,-13.37,-13.11,0,*61
1547784290.39,16768,0.0,0.0,-11.49,-13.19,-13.07,0,*6C
1547784291.65,16769,0.0,0.0,-11.49,-13.29,-13.37,0,*6D
1547784292.89,16770,0.0,0.0,-11.51,-13.55,-13.43,0,*64
1547784294.12,16771,0.0,0.0,-11.51,-13.69,-13.43,0,*6A
1547784295.33,16772,0.0,0.0,-11.49,-13.65,-13.51,0,*6F
1547784296.54,16773,0.0,0.0,-11.49,-13.69,-13.55,0,*66
1547784297.75,16774,0.0,0.0,-11.49,-13.65,-13.65,0,*6E
1547784299.01,16775,0.0,0.0,-11.51,-13.83,-13.69,0,*62
1547784300.25,16776,0.0,0.0,-11.49,-13.79,-13.65,0,*61
1547784301.46,16777,0.0,0.0,-11.49,-13.73,-13.65,0,*6A
1547784302.7,16778,0.0,0.0,-11.49,-13.73,-13.61,0,*61
1547784303.94,16779,0.0,0.0,-11.49,-13.73,-13.61,0,*60
1547784305.18,16780,0.0,0.0,-11.49,-13.73,-13.61,0,*66
1547784306.39,16781,0.0,0.0,-11.49,-13.65,-13.51,0,*63
1547784307.62,16782,0.0,0.0,-11.49,-13.79,-13.65,0,*6A
1547784308.85,16783,0.0,0.0,-11.49,-13.93,-13.79,0,*62
1547784310.06,16784,0.0,0.0,-11.49,-13.73,-13.65,0,*66
1547784311.29,16785,0.0,0.0,-11.49,-13.73,-13.79,0,*6A
1547784312.52,16786,0.0,0.0,-11.49,-13.73,-13.79,0,*69
1547784313.73,16787,0.0,0.0,-11.49,-13.73,-13.65,0,*65
1547784314.97,16788,0.0,0.0,-11.49,-13.87,-13.65,0,*61
1547784316.2,16789,0.0,0.0,-11.49,-13.87,-13.73,0,*67
1547784317.46,16790,0.0,0.0,-11.49,-13.87,-13.79,0,*65
1547784318.71,16791,0.0,0.0,-11.51,-13.93,-13.83,0,*6D
1547784319.97,16792,0.0,0.0,-11.49,-13.87,-13.87,0,*66
1547784321.2,16793,0.0,0.0,-11.49,-13.93,-13.79,0,*63
1547784322.45,16794,0.0,0.0,-11.49,-13.87,-13.79,0,*61
1547784323.71,16795,0.0,0.0,-11.49,-13.79,-13.87,0,*60
1547784324.99,16796,0.0,0.0,-11.51,-13.79,-13.79,0,*6B
1547784326.23,16797,0.0,0.0,-11.49,-13.61,-13.65,0,*67
1547784327.46,16798,0.0,0.0,-11.49,-13.61,-13.65,0,*68
1547784328.67,16799,0.0,0.0,-11.49,-13.65,-13.65,0,*6D
1547784329.88,16800,0.0,0.0,-11.49,-13.65,-13.69,0,*6E
1547784331.08,16801,0.0,0.0,-11.49,-13.69,-13.69,0,*63
1547784332.32,16802,0.0,0.0,-11.51,-13.65,-13.55,0,*6A
1547784333.55,16803,0.0,0.0,-11.49,-13.61,-13.47,0,*65
1547784334.79,16804,0.0,0.0,-11.49,-13.61,-13.51,0,*65
1547784336.02,16805,0.0,0.0,-11.49,-13.61,-13.47,0,*63
1547784337.28,16806,0.0,0.0,-11.49,-13.37,-13.29,0,*6B
1547784338.54,16807,0.0,0.0,-11.49,-13.33,-13.37,0,*61
1547784339.8,16808,0.0,0.0,-11.49,-13.37,-13.37,0,*6A
1547784341.04,16809,0.0,0.0,-11.49,-13.47,-13.33,0,*68
1547784342.27,16810,0.0,0.0,-11.49,-13.47,-13.37,0,*64
1547784343.49,16811,0.0,0.0,-11.49,-13.51,-13.51,0,*62
1547784344.73,16812,0.0,0.0,-11.49,-13.61,-13.51,0,*62
1547784345.95,16813,0.0,0.0,-11.49,-13.51,-13.51,0,*60
1547784347.16,16814,0.0,0.0,-11.49,-13.51,-13.47,0,*60
1547784348.37,16815,0.0,0.0,-11.49,-13.47,-13.51,0,*61
1547784349.59,16816,0.0,0.0,-11.49,-13.51,-13.51,0,*65
1547784350.79,16817,0.0,0.0,-11.49,-13.47,-13.47,0,*64
1547784352.03,16818,0.0,0.0,-11.49,-13.33,-13.19,0,*63
1547784353.27,16819,0.0,0.0,-11.47,-13.19,-13.15,0,*68
1547784354.53,16820,0.0,0.0,-11.47,-13.07,-13.01,0,*68
1547784355.76,16821,0.0,0.0,-11.47,-13.15,-13.15,0,*6F
1547784357.02,16822,0.0,0.0,-11.49,-13.29,-13.29,0,*62
1547784358.29,16823,0.0,0.0,-11.49,-13.33,-13.33,0,*63
1547784359.55,16824,0.0,0.0,-11.49,-13.33,-13.33,0,*64
1547784360.81,16825,0.0,0.0,-11.47,-13.33,-13.51,0,*6F
1547784362.1,16826,0.0,0.0,-11.47,-13.33,-13.61,0,*6F
1547784363.37,16827,0.0,0.0,-11.49,-13.37,-13.61,0,*64
1547784364.63,16828,0.0,0.0,-11.49,-13.37,-13.61,0,*6B
1547784365.87,16829,0.0,0.0,-11.51,-13.55,-13.65,0,*63
1547784367.08,16830,0.0,0.0,-11.49,-13.73,-13.65,0,*66
1547784368.29,16831,0.0,0.0,-11.49,-13.65,-13.73,0,*67
1547784369.55,16832,0.0,0.0,-11.49,-13.61,-13.61,0,*63
1547784370.77,16833,0.0,0.0,-11.49,-13.51,-13.65,0,*65
1547784372.0,16834,0.0,0.0,-11.49,-13.61,-13.73,0,*66
1547784373.24,16835,0.0,0.0,-11.49,-13.61,-13.51,0,*67
1547784374.51,16836,0.0,0.0,-11.47,-13.65,-13.61,0,*6D
1547784375.77,16837,0.0,0.0,-11.47,-13.61,-13.47,0,*6C
1547784377.06,16838,0.0,0.0,-11.47,-13.61,-13.33,0,*60
1547784378.26,16839,0.0,0.0,-11.49,-13.65,-13.47,0,*68
1547784379.52,16840,0.0,0.0,-11.49,-13.61,-13.37,0,*65
1547784380.78,16841,0.0,0.0,-11.49,-13.61,-13.37,0,*64
1547784382.02,16842,0.0,0.0,-11.49,-13.47,-13.37,0,*63
1547784383.22,16843,0.0,0.0,-11.49,-13.47,-13.47,0,*65
1547784384.46,16844,0.0,0.0,-11.49,-13.51,-13.61,0,*61
1547784385.67,16845,0.0,0.0,-11.49,-13.47,-13.65,0,*63
1547784386.93,16846,0.0,0.0,-11.49,-13.37,-13.79,0,*6A
1547784388.19,16847,0.0,0.0,-11.49,-13.61,-13.87,0,*69
1547784389.4,16848,0.0,0.0,-11.49,-13.51,-13.93,0,*60
1547784390.67,16849,0.0,0.0,-11.51,-13.69,-13.97,0,*67
1547784391.9,16850,0.0,0.0,-11.49,-13.65,-13.87,0,*6B
1547784393.13,16851,0.0,0.0,-11.49,-13.65,-13.87,0,*6A
1547784394.36,16852,0.0,0.0,-11.49,-13.79,-13.93,0,*61
1547784395.62,16853,0.0,0.0,-11.49,-13.79,-13.87,0,*65
1547784396.85,16854,0.0,0.0,-11.49,-13.73,-13.87,0,*68
1547784398.06,16855,0.0,0.0,-11.49,-13.73,-13.93,0,*6C
1547784399.32,16856,0.0,0.0,-11.49,-13.87,-14.01,0,*68
1547784400.6,16857,0.0,0.0,-11.49,-14.01,-14.01,0,*60
1547784401.87,16858,0.0,0.0,-11.49,-14.01,-14.01,0,*6F
1547784403.14,16859,0.0,0.0,-11.49,-14.05,-14.05,0,*6E
1547784404.41,16860,0.0,0.0,-11.49,-14.05,-14.05,0,*64
1547784405.67,16861,0.0,0.0,-11.49,-14.05,-13.87,0,*68
1547784406.91,16862,0.0,0.0,-11.49,-13.87,-13.73,0,*6D
1547784408.19,16863,0.0,0.0,-11.51,-13.83,-13.79,0,*6B
1547784409.45,16864,0.0,0.0,-11.49,-13.79,-13.87,0,*61
1547784410.68,16865,0.0,0.0,-11.49,-13.79,-13.93,0,*65
1547784411.98,16866,0.0,0.0,-11.47,-14.01,-14.05,0,*68
1547784413.24,16867,0.0,0.0,-11.47,-13.93,-14.05,0,*65
1547784414.51,16868,0.0,0.0,-11.47,-14.05,-13.93,0,*6A
1547784415.8,16869,0.0,0.0,-11.47,-14.05,-13.87,0,*6E
1547784417.06,16870,0.0,0.0,-11.47,-14.01,-13.93,0,*67
1547784418.36,16871,0.0,0.0,-11.47,-14.01,-14.01,0,*6A
1547784419.63,16872,0.0,0.0,-11.45,-14.05,-13.87,0,*66
1547784420.93,16873,0.0,0.0,-11.47,-14.05,-14.01,0,*6C
1547784422.2,16874,0.0,0.0,-11.49,-14.05,-14.01,0,*65
1547784423.47,16875,0.0,0.0,-11.49,-14.01,-13.87,0,*69
1547784424.7,16876,0.0,0.0,-11.47,-13.93,-13.93,0,*6D
1547784425.95,16877,0.0,0.0,-11.47,-13.93,-13.87,0,*69
1547784427.19,16878,0.0,0.0,-11.45,-13.87,-13.73,0,*6A
1547784428.47,16879,0.0,0.0,-11.47,-13.87,-13.79,0,*63
1547784429.7,16880,0.0,0.0,-11.47,-13.93,-13.93,0,*64
1547784430.97,16881,0.0,0.0,-11.47,-13.87,-13.73,0,*6E
1547784432.25,16882,0.0,0.0,-11.47,-13.87,-13.79,0,*67
1547784433.53,16883,0.0,0.0,-11.47,-13.79,-13.79,0,*67
1547784434.79,16884,0.0,0.0,-11.47,-13.73,-13.79,0,*6A
1547784436.04,16885,0.0,0.0,-11.47,-13.79,-13.93,0,*65
1547784437.33,16886,0.0,0.0,-11.47,-13.87,-13.87,0,*62
1547784438.61,16887,0.0,0.0,-11.47,-13.79,-13.87,0,*62
1547784439.87,16888,0.0,0.0,-11.47,-13.79,-13.93,0,*68
1547784441.14,16889,0.0,0.0,-11.47,-13.93,-14.01,0,*61
1547784442.37,16890,0.0,0.0,-11.47,-13.93,-13.93,0,*65
1547784443.63,16891,0.0,0.0,-11.47,-13.93,-13.87,0,*61
1547784444.91,16892,0.0,0.0,-11.47,-13.87,-13.87,0,*67
1547784446.2,16893,0.0,0.0,-11.47,-13.87,-13.87,0,*66
1547784447.46,16894,0.0,0.0,-11.47,-13.93,-13.87,0,*64
1547784448.71,16895,0.0,0.0,-11.47,-13.93,-13.87,0,*65
1547784450.0,16896,0.0,0.0,-11.47,-13.87,-13.87,0,*63
1547784451.24,16897,0.0,0.0,-11.45,-13.83,-13.73,0,*6F
1547784452.52,16898,0.0,0.0,-11.47,-13.79,-13.87,0,*6C
1547784453.79,16899,0.0,0.0,-11.45,-13.83,-13.87,0,*6A
1547784455.05,16900,0.0,0.0,-11.47,-13.93,-14.01,0,*61
1547784456.31,16901,0.0,0.0,-11.47,-13.87,-13.93,0,*69
1547784457.57,16902,0.0,0.0,-11.47,-13.87,-13.93,0,*6A
1547784458.8,16903,0.0,0.0,-11.47,-13.93,-13.93,0,*6E
1547784460.07,16904,0.0,0.0,-11.47,-13.93,-14.05,0,*61
1547784461.34,16905,0.0,0.0,-11.47,-14.01,-14.15,0,*6D
1547784462.59,16906,0.0,0.0,-11.47,-14.15,-14.23,0,*6E
1547784463.81,16907,0.0,0.0,-11.45,-14.15,-14.19,0,*64
1547784465.02,16908,0.0,0.0,-11.49,-14.33,-14.33,0,*6B
1547784466.27,16909,0.0,0.0,-11.47,-14.19,-14.19,0,*64
1547784467.51,16910,0.0,0.0,-11.47,-14.19,-14.37,0,*60
1547784468.73,16911,0.0,0.0,-11.49,-14.23,-14.37,0,*66
1547784469.95,16912,0.0,0.0,-11.49,-14.15,-14.23,0,*65
1547784471.17,16913,0.0,0.0,-11.49,-14.19,-14.23,0,*68
1547784472.39,16914,0.0,0.0,-11.49,-14.15,-14.19,0,*6A
1547784473.64,16915,0.0,0.0,-11.47,-14.19,-14.23,0,*60
1547784474.89,16916,0.0,0.0,-11.47,-14.15,-14.15,0,*6A
1547784476.17,16917,0.0,0.0,-11.47,-14.05,-14.15,0,*6A
1547784477.44,16918,0.0,0.0,-11.47,-14.05,-14.15,0,*65
1547784478.68,16919,0.0,0.0,-11.49,-14.01,-14.15,0,*6E
1547784479.93,16920,0.0,0.0,-11.49,-14.01,-14.19,0,*68
1547784481.17,16921,0.0,0.0,-11.49,-14.05,-14.19,0,*6D
1547784482.42,16922,0.0,0.0,-11.49,-14.05,-14.15,0,*62
1547784483.66,16923,0.0,0.0,-11.47,-13.93,-14.15,0,*65
1547784484.96,16924,0.0,0.0,-11.47,-14.01,-14.01,0,*6B
1547784486.22,16925,0.0,0.0,-11.47,-13.93,-14.01,0,*66
1547784487.43,16926,0.0,0.0,-11.49,-13.93,-14.15,0,*6E
1547784488.68,16927,0.0,0.0,-11.49,-14.05,-14.19,0,*6B
1547784489.92,16928,0.0,0.0,-11.49,-14.05,-14.15,0,*68
1547784491.17,16929,0.0,0.0,-11.49,-14.05,-14.15,0,*69
1547784492.39,16930,0.0,0.0,-11.49,-14.15,-14.15,0,*60
1547784493.66,16931,0.0,0.0,-11.49,-14.05,-14.05,0,*61
1547784494.93,16932,0.0,0.0,-11.49,-14.05,-14.01,0,*66
1547784496.18,16933,0.0,0.0,-11.49,-14.15,-14.05,0,*62
1547784497.4,16934,0.0,0.0,-11.49,-14.15,-14.15,0,*64
1547784498.63,16935,0.0,0.0,-11.49,-14.15,-14.19,0,*69
1547784499.84,16936,0.0,0.0,-11.49,-14.19,-14.19,0,*66
1547784501.06,16937,0.0,0.0,-11.49,-14.19,-14.19,0,*67
1547784502.27,16938,0.0,0.0,-11.49,-14.33,-14.23,0,*69
1547784503.49,16939,0.0,0.0,-11.49,-14.33,-14.37,0,*6D
1547784504.71,16940,0.0,0.0,-11.49,-14.23,-14.15,0,*62
1547784505.95,16941,0.0,0.0,-11.51,-14.19,-14.19,0,*6F
1547784507.22,16942,0.0,0.0,-11.49,-14.01,-14.01,0,*65
1547784508.49,16943,0.0,0.0,-11.49,-14.05,-14.01,0,*60
1547784509.73,16944,0.0,0.0,-11.51,-14.11,-14.11,0,*6A
1547784511.0,16945,0.0,0.0,-11.49,-14.05,-14.01,0,*66
1547784512.3,16946,0.0,0.0,-11.47,-14.01,-14.05,0,*6B
1547784513.52,16947,0.0,0.0,-11.49,-14.19,-14.19,0,*60
1547784514.76,16948,0.0,0.0,-11.51,-14.37,-14.37,0,*66
1547784515.97,16949,0.0,0.0,-11.49,-14.37,-14.37,0,*6E
1547784517.19,16950,0.0,0.0,-11.49,-14.23,-14.19,0,*6F
1547784518.41,16951,0.0,0.0,-11.49,-14.23,-14.23,0,*67
1547784519.64,16952,0.0,0.0,-11.51,-14.29,-14.19,0,*6E
1547784520.86,16953,0.0,0.0,-11.49,-14.23,-14.23,0,*65
1547784522.11,16954,0.0,0.0,-11.51,-14.19,-14.19,0,*6B
1547784523.35,16955,0.0,0.0,-11.51,-14.11,-14.19,0,*62
1547784524.61,16956,0.0,0.0,-11.49,-14.05,-13.87,0,*6D
1547784525.87,16957,0.0,0.0,-11.49,-13.87,-13.79,0,*60
1547784527.13,16958,0.0,0.0,-11.49,-13.79,-13.61,0,*67
1547784528.37,16959,0.0,0.0,-11.51,-13.55,-13.55,0,*66
1547784529.61,16960,0.0,0.0,-11.51,-13.51,-13.51,0,*6C
1547784530.87,16961,0.0,0.0,-11.49,-13.61,-13.61,0,*64
1547784532.14,16962,0.0,0.0,-11.49,-13.61,-13.61,0,*67
1547784533.37,16963,0.0,0.0,-11.51,-13.69,-13.69,0,*6F
1547784534.64,16964,0.0,0.0,-11.49,-13.61,-13.61,0,*61
1547784535.87,16965,0.0,0.0,-11.49,-13.73,-13.79,0,*6A
1547784537.14,16966,0.0,0.0,-11.49,-14.05,-14.05,0,*63
1547784538.39,16967,0.0,0.0,-11.49,-14.15,-14.01,0,*67
1547784539.61,16968,0.0,0.0,-11.49,-13.93,-13.79,0,*69
1547784540.82,16969,0.0,0.0,-11.49,-13.65,-13.73,0,*6B
1547784542.06,16970,0.0,0.0,-11.49,-14.01,-13.93,0,*68
1547784543.31,16971,0.0,0.0,-11.49,-14.15,-14.05,0,*64
1547784544.56,16972,0.0,0.0,-11.49,-14.15,-14.01,0,*63